Weather History for KCBK - March, 2014

Change the Weather History Date:

Wednesday, March 26, 2014

  Actual Average (KGLD) Record (KGLD)
Temperature  
Mean Temperature 52 °F 43 °F  
Max Temperature 68 °F 58 °F 86 °F (1907)
Min Temperature 37 °F 29 °F -1 °F (1955)
Degree Days  
Heating Degree Days 12 22  
Month to date heating degree days 654  
Since 1 July heating degree days 5071  
Cooling Degree Days 0 0  
Month to date cooling degree days 0  
Year to date cooling degree days 0  
Growing Degree Days 2 (Base 50)    
Moisture  
Dew Point 35 °F    
Average Humidity 57    
Maximum Humidity 100    
Minimum Humidity 35    
Precipitation  
Precipitation 0.00 in 0.04 in 0.62 in (1931)
Month to date precipitation 0.85  
Year to date precipitation 1.72  
Snow  
Snow 0.00 in 0.20 in - ()
Month to date snowfall 5.5  
Since 1 July snowfall 29.5  
Snow Depth -    
Sea Level Pressure  
Sea Level Pressure 29.58 in    
Wind  
Wind Speed 20 mph (South)    
Max Wind Speed 29 mph    
Max Gust Speed 39 mph    
Visibility 10 miles    
Events      
T = Trace of Precipitation, MM = Missing Value Source: NWS Daily Summary

Daily Weather History Graph

Daily Weather History Graph

Search for Another Location

Airport or City:

Trip Planner

Search our weather history database for the weather conditions in past years. The results will help you decide how hot, cold, wet, or windy it might be!

Date:

Astronomy

Mar. 26, 2014 Rise Set
Actual Time 7:37 AM CDT 8:02 PM CDT
Civil Twilight 7:11 AM CDT 8:29 PM CDT
Nautical Twilight 6:39 AM CDT 9:00 PM CDT
Astronomical Twilight 6:07 AM CDT 9:33 PM CDT
Moon 4:46 AM CDT (3/26) 3:44 PM CDT (3/26)
Length of Visible Light 13h 18m
Length of Day
12h 24m
Waning Crescent, 21% of the Moon is Illuminated
Mar 26
Waning Crescent
Mar 30
New
Apr 7
First Quarter
Apr 15
Full
Apr 22
Last Quarter

Hourly Weather History & Observations

Time (CDT) Temp. Windchill Dew Point Humidity Pressure Visibility Wind Dir Wind Speed Gust Speed Precip Events Conditions
12:10 AM 37.4 °F 27.5 °F 26.6 °F 65% 29.90 in 10.0 mi SSE 18.4 mph 24.2 mph N/A   Clear
12:30 AM 37.4 °F 27.8 °F 26.6 °F 65% 29.89 in 10.0 mi SSE 17.3 mph - N/A   Clear
12:50 AM 37.4 °F 27.8 °F 26.6 °F 65% 29.87 in 10.0 mi SSE 17.3 mph 21.9 mph N/A   Clear
1:10 AM 39.2 °F 30.2 °F 24.8 °F 56% 29.86 in 10.0 mi South 17.3 mph 23.0 mph N/A   Clear
1:30 AM 41.0 °F 31.4 °F 23.0 °F 49% 29.85 in 10.0 mi South 21.9 mph 28.8 mph N/A   Clear
1:50 AM 41.0 °F 31.9 °F 23.0 °F 49% 29.84 in 10.0 mi South 19.6 mph 28.8 mph N/A   Clear
2:10 AM 41.0 °F 31.6 °F 23.0 °F 49% 29.83 in 10.0 mi South 20.7 mph 28.8 mph N/A   Clear
2:30 AM 41.0 °F 31.9 °F 23.0 °F 49% 29.81 in 10.0 mi South 19.6 mph 29.9 mph N/A   Clear
2:50 AM 41.0 °F 31.9 °F 23.0 °F 49% 29.80 in 10.0 mi South 19.6 mph 26.5 mph N/A   Clear
3:10 AM 41.0 °F 31.1 °F 23.0 °F 49% 29.79 in 10.0 mi South 23.0 mph 32.2 mph N/A   Clear
3:35 AM 41.0 °F 31.4 °F 23.0 °F 49% 29.77 in 10.0 mi South 21.9 mph 32.2 mph N/A   Clear
3:50 AM 41.0 °F 31.1 °F 23.0 °F 49% 29.76 in 10.0 mi South 23.0 mph 29.9 mph N/A   Clear
4:10 AM 41.0 °F 31.9 °F 23.0 °F 49% 29.75 in 10.0 mi South 19.6 mph 26.5 mph N/A   Clear
4:30 AM 41.0 °F 31.9 °F 23.0 °F 49% 29.74 in 10.0 mi South 19.6 mph 24.2 mph N/A   Clear
4:50 AM 39.2 °F 29.6 °F 23.0 °F 52% 29.72 in 10.0 mi South 19.6 mph 24.2 mph N/A   Clear
5:10 AM 39.2 °F 29.8 °F 23.0 °F 52% 29.71 in 10.0 mi South 18.4 mph - N/A   Clear
5:30 AM 39.2 °F 29.6 °F 23.0 °F 52% 29.71 in 10.0 mi South 19.6 mph 26.5 mph N/A   Clear
5:50 AM 39.2 °F 29.8 °F 24.8 °F 56% 29.69 in 10.0 mi South 18.4 mph 24.2 mph N/A   Clear
6:10 AM 39.2 °F 30.5 °F 24.8 °F 56% 29.68 in 10.0 mi South 16.1 mph 23.0 mph N/A   Clear
6:30 AM 37.4 °F 28.5 °F 24.8 °F 60% 29.67 in 10.0 mi South 15.0 mph - N/A   Clear
6:50 AM 37.4 °F 29.3 °F 26.6 °F 65% 29.67 in 10.0 mi South 12.7 mph 17.3 mph N/A   Clear
7:10 AM 39.2 °F 31.6 °F 28.4 °F 65% 29.67 in 10.0 mi South 12.7 mph 19.6 mph N/A   Clear
7:30 AM 39.2 °F 31.6 °F 28.4 °F 65% 29.66 in 10.0 mi South 12.7 mph 19.6 mph N/A   Clear
7:50 AM 39.2 °F 31.6 °F 30.2 °F 70% 29.67 in 10.0 mi South 12.7 mph - N/A   Clear
8:10 AM 41.0 °F 33.9 °F 30.2 °F 65% 29.66 in 10.0 mi South 12.7 mph - N/A   Clear
8:30 AM 41.0 °F 33.5 °F 30.2 °F 65% 29.66 in 10.0 mi South 13.8 mph 18.4 mph N/A   Clear
8:50 AM 42.8 °F 35.1 °F 32.0 °F 66% 29.65 in 10.0 mi South 16.1 mph 24.2 mph N/A   Clear
9:10 AM 44.6 °F 36.1 °F 32.0 °F 61% 29.65 in 10.0 mi South 21.9 mph 28.8 mph N/A   Clear
9:30 AM 46.4 °F 39.2 °F 32.0 °F 57% 29.64 in 10.0 mi SSW 18.4 mph 27.6 mph N/A   Clear
9:50 AM 50.0 °F - 33.8 °F 54% 29.63 in 10.0 mi South 19.6 mph 27.6 mph N/A   Clear
10:10 AM 50.0 °F - 33.8 °F 54% 29.63 in 10.0 mi SSW 23.0 mph 27.6 mph N/A   Clear
10:30 AM 51.8 °F - 35.6 °F 54% 29.63 in 10.0 mi SSW 17.3 mph 31.1 mph N/A   Clear
10:50 AM 55.4 °F - 35.6 °F 47% 29.62 in 10.0 mi South 20.7 mph 28.8 mph N/A   Clear
11:10 AM 57.2 °F - 35.6 °F 44% 29.62 in 10.0 mi SSW 23.0 mph 33.4 mph N/A   Clear
11:30 AM 59.0 °F - 35.6 °F 42% 29.61 in 10.0 mi SSW 25.3 mph 34.5 mph N/A   Clear
11:50 AM 59.0 °F - 35.6 °F 42% 29.60 in 10.0 mi SSW 24.2 mph 31.1 mph N/A   Clear
12:15 PM 62.6 °F - 37.4 °F 39% 29.58 in 10.0 mi South 24.2 mph 31.1 mph N/A   Clear
12:30 PM 62.6 °F - 37.4 °F 39% 29.57 in 10.0 mi SSW 20.7 mph 33.4 mph N/A   Clear
12:50 PM 64.4 °F - 37.4 °F 37% 29.57 in 10.0 mi South 24.2 mph 33.4 mph N/A   Clear
1:10 PM 64.4 °F - 37.4 °F 37% 29.55 in 10.0 mi South 23.0 mph 31.1 mph N/A   Clear
1:30 PM 68.0 °F - 39.2 °F 35% 29.54 in 10.0 mi SSW 24.2 mph 31.1 mph N/A   Clear
1:50 PM 68.0 °F - 39.2 °F 35% 29.53 in 10.0 mi South 25.3 mph 32.2 mph N/A   Clear
2:10 PM 68.0 °F - 39.2 °F 35% 29.52 in 10.0 mi South 24.2 mph 32.2 mph N/A   Clear
2:30 PM 68.0 °F - 41.0 °F 37% 29.51 in 10.0 mi South 26.5 mph 35.7 mph N/A   Clear
2:50 PM 68.0 °F - 41.0 °F 37% 29.50 in 10.0 mi SSW 19.6 mph 34.5 mph N/A   Clear
3:10 PM 68.0 °F - 41.0 °F 37% 29.48 in 10.0 mi South 25.3 mph 33.4 mph N/A   Clear
3:30 PM 68.0 °F - 42.8 °F 40% 29.47 in 10.0 mi South 24.2 mph 34.5 mph N/A   Clear
3:50 PM 68.0 °F - 42.8 °F 40% 29.46 in 10.0 mi South 25.3 mph 38.0 mph N/A   Clear
4:10 PM 68.0 °F - 42.8 °F 40% 29.45 in 10.0 mi South 25.3 mph 36.8 mph N/A   Clear
4:30 PM 68.0 °F - 42.8 °F 40% 29.44 in 10.0 mi South 25.3 mph 34.5 mph N/A   Clear
4:50 PM 68.0 °F - 42.8 °F 40% 29.43 in 10.0 mi South 24.2 mph 34.5 mph N/A   Clear
5:10 PM 68.0 °F - 42.8 °F 40% 29.43 in 10.0 mi South 25.3 mph 34.5 mph N/A   Clear
5:30 PM 68.0 °F - 44.6 °F 43% 29.42 in 10.0 mi South 24.2 mph 39.1 mph N/A   Clear
5:50 PM 64.4 °F - 44.6 °F 49% 29.41 in 10.0 mi South 25.3 mph 36.8 mph N/A   Clear
6:10 PM 64.4 °F - 44.6 °F 49% 29.40 in 10.0 mi SSE 27.6 mph 32.2 mph N/A   Clear
6:30 PM 64.4 °F - 44.6 °F 49% 29.39 in 10.0 mi SSE 26.5 mph 33.4 mph N/A   Clear
6:50 PM 64.4 °F - 44.6 °F 49% 29.40 in 10.0 mi SSE 23.0 mph 29.9 mph N/A   Clear
7:10 PM 62.6 °F - 44.6 °F 52% 29.40 in 10.0 mi SSE 21.9 mph 34.5 mph N/A   Clear
7:30 PM 57.2 °F - 44.6 °F 63% 29.40 in 10.0 mi SSE 28.8 mph 36.8 mph N/A   Clear
7:50 PM 55.4 °F - 44.6 °F 67% 29.39 in 10.0 mi SSE 23.0 mph 31.1 mph N/A   Clear
8:10 PM 53.6 °F - 44.6 °F 72% 29.39 in 10.0 mi SSE 24.2 mph 32.2 mph N/A   Clear
8:30 PM 50.0 °F - 44.6 °F 82% 29.39 in 10.0 mi SSE 24.2 mph 33.4 mph N/A   Clear
8:50 PM 50.0 °F - 44.6 °F 82% 29.38 in 10.0 mi SSE 23.0 mph 27.6 mph N/A   Clear
9:10 PM 48.2 °F - 44.6 °F 87% 29.38 in 10.0 mi SSE 20.7 mph 27.6 mph N/A   Clear
9:30 PM 46.4 °F 38.5 °F 44.6 °F 93% 29.38 in 10.0 mi SSE 21.9 mph 25.3 mph N/A   Scattered Clouds
9:50 PM 46.4 °F 39.2 °F 44.6 °F 93% 29.37 in 10.0 mi SSE 18.4 mph 24.2 mph N/A   Clear
10:10 PM 46.4 °F 39.2 °F 44.6 °F 93% 29.37 in 10.0 mi SSE 18.4 mph 24.2 mph N/A   Scattered Clouds
10:30 PM 46.4 °F 39.2 °F 44.6 °F 93% 29.37 in 10.0 mi SSE 18.4 mph 25.3 mph N/A   Scattered Clouds
10:50 PM 46.4 °F 38.7 °F 44.6 °F 93% 29.36 in 10.0 mi SSE 20.7 mph 27.6 mph N/A   Clear
11:10 PM 44.6 °F 37.2 °F 44.6 °F 100% 29.35 in 10.0 mi SSE 17.3 mph - N/A   Clear
11:30 PM 46.4 °F 39.5 °F 44.6 °F 93% 29.34 in 10.0 mi SSE 17.3 mph 24.2 mph N/A   Clear
11:50 PM 44.6 °F 37.2 °F 44.6 °F 100% 29.34 in 10.0 mi SSE 17.3 mph 23.0 mph N/A   Clear